contact:dominique.lefevre@mio.osupytheas.fr, maurice.libes@osupytheas.fr, didier.mallarino@osupytheas.fr
Project:EMSO http://www.emso-fr.org/EMSO-France
Depth: 2436.0 m
Title:EMSO Ligure Ouest : Data MII capteur CSTAR
DateTime,Latitude,Longitude,Instrument_Serial,Reference_Counts,Signal_Counts,Corrected_Signal_raw_counts,Calculated_Beam_c_inverse_meters,Internal_thermistor_counts
DateTime,Latitude,Longitude,Instrument_Serial,Reference_Counts,Signal_Counts,Corrected_Signal_raw_counts,Calculated_Beam_c_inverse_meters,Internal_thermistor_counts
2021-08-30T00:00:22,42.805,6.029,CST-1368DR,5263,7231,14721,0.236,551
2021-08-30T00:03:24,42.805,6.029,CST-1368DR,5263,7233,14724,0.235,551
2021-08-30T00:06:26,42.805,6.029,CST-1368DR,5263,7232,14722,0.236,551
2021-08-30T00:09:27,42.805,6.029,CST-1368DR,5263,7232,14722,0.236,551
2021-08-30T00:12:29,42.805,6.029,CST-1368DR,5263,7232,14722,0.236,551
2021-08-30T00:15:30,42.805,6.029,CST-1368DR,5263,7232,14723,0.236,551
2021-08-30T00:18:32,42.805,6.029,CST-1368DR,5263,7233,14724,0.235,551
2021-08-30T00:21:34,42.805,6.029,CST-1368DR,5263,7232,14722,0.236,551
2021-08-30T00:24:35,42.805,6.029,CST-1368DR,5263,7228,14715,0.238,551
2021-08-30T00:27:37,42.805,6.029,CST-1368DR,5263,7231,14721,0.236,551
2021-08-30T00:30:38,42.805,6.029,CST-1368DR,5263,7232,14723,0.236,551
2021-08-30T00:33:40,42.805,6.029,CST-1368DR,5263,7233,14724,0.235,551
2021-08-30T00:36:41,42.805,6.029,CST-1368DR,5263,7233,14724,0.235,551
2021-08-30T00:39:43,42.805,6.029,CST-1368DR,5263,7229,14717,0.237,551
2021-08-30T00:42:45,42.805,6.029,CST-1368DR,5263,7232,14722,0.236,551
2021-08-30T00:45:46,42.805,6.029,CST-1368DR,5263,7232,14722,0.236,551
2021-08-30T00:48:48,42.805,6.029,CST-1368DR,5263,7232,14722,0.236,551
2021-08-30T00:51:49,42.805,6.029,CST-1368DR,5263,7232,14722,0.236,551
2021-08-30T00:54:51,42.805,6.029,CST-1368DR,5263,7232,14722,0.236,551
2021-08-30T00:57:52,42.805,6.029,CST-1368DR,5263,7232,14722,0.236,550
2021-08-30T01:00:54,42.805,6.029,CST-1368DR,5263,7232,14722,0.236,551
2021-08-30T01:03:56,42.805,6.029,CST-1368DR,5263,7231,14721,0.236,550
2021-08-30T01:06:57,42.805,6.029,CST-1368DR,5263,7232,14723,0.236,551
2021-08-30T01:09:59,42.805,6.029,CST-1368DR,5263,7232,14722,0.236,551
2021-08-30T01:13:00,42.805,6.029,CST-1368DR,5263,7232,14723,0.236,551
2021-08-30T01:16:02,42.805,6.029,CST-1368DR,5263,7232,14723,0.236,551
2021-08-30T01:19:04,42.805,6.029,CST-1368DR,5263,7232,14722,0.236,551
2021-08-30T01:22:05,42.805,6.029,CST-1368DR,5263,7231,14721,0.236,551
2021-08-30T01:25:07,42.805,6.029,CST-1368DR,5263,7232,14722,0.236,551
2021-08-30T01:28:08,42.805,6.029,CST-1368DR,5263,7229,14717,0.237,551
2021-08-30T01:31:10,42.805,6.029,CST-1368DR,5263,7231,14721,0.236,551
2021-08-30T01:34:11,42.805,6.029,CST-1368DR,5263,7232,14722,0.236,551
2021-08-30T01:37:13,42.805,6.029,CST-1368DR,5263,7232,14723,0.236,551
2021-08-30T01:40:15,42.805,6.029,CST-1368DR,5263,7232,14722,0.236,551
2021-08-30T01:43:16,42.805,6.029,CST-1368DR,5263,7232,14722,0.236,551
2021-08-30T01:46:18,42.805,6.029,CST-1368DR,5263,7232,14722,0.236,551
2021-08-30T01:49:19,42.805,6.029,CST-1368DR,5263,7231,14721,0.236,551
2021-08-30T01:52:21,42.805,6.029,CST-1368DR,5263,7232,14722,0.236,551
2021-08-30T01:55:23,42.805,6.029,CST-1368DR,5263,7232,14722,0.236,551
2021-08-30T01:58:24,42.805,6.029,CST-1368DR,5263,7232,14722,0.236,551
2021-08-30T02:01:26,42.805,6.029,CST-1368DR,5263,7232,14722,0.236,551
2021-08-30T02:04:27,42.805,6.029,CST-1368DR,5263,7232,14722,0.236,551
2021-08-30T02:07:29,42.805,6.029,CST-1368DR,5263,7231,14721,0.236,551
2021-08-30T02:10:30,42.805,6.029,CST-1368DR,5263,7232,14722,0.236,551
2021-08-30T02:13:32,42.805,6.029,CST-1368DR,5263,7232,14722,0.236,551
2021-08-30T02:16:34,42.805,6.029,CST-1368DR,5263,7231,14721,0.236,551
2021-08-30T02:19:35,42.805,6.029,CST-1368DR,5263,7232,14722,0.236,551
2021-08-30T02:22:37,42.805,6.029,CST-1368DR,5263,7230,14719,0.237,551
2021-08-30T02:25:38,42.805,6.029,CST-1368DR,5263,7231,14721,0.236,551
2021-08-30T02:28:40,42.805,6.029,CST-1368DR,5263,7232,14722,0.236,551
2021-08-30T02:31:41,42.805,6.029,CST-1368DR,5263,7232,14722,0.236,551
2021-08-30T02:34:43,42.805,6.029,CST-1368DR,5263,7232,14722,0.236,551
2021-08-30T02:37:45,42.805,6.029,CST-1368DR,5263,7232,14722,0.236,551
2021-08-30T02:40:46,42.805,6.029,CST-1368DR,5263,7232,14722,0.236,551
2021-08-30T02:43:48,42.805,6.029,CST-1368DR,5263,7231,14721,0.236,551
2021-08-30T02:46:49,42.805,6.029,CST-1368DR,5263,7231,14721,0.236,551
2021-08-30T02:49:51,42.805,6.029,CST-1368DR,5263,7232,14722,0.236,551
2021-08-30T02:52:53,42.805,6.029,CST-1368DR,5263,7232,14722,0.236,551
2021-08-30T02:55:54,42.805,6.029,CST-1368DR,5263,7231,14721,0.236,551
2021-08-30T02:58:56,42.805,6.029,CST-1368DR,5263,7232,14722,0.236,551
2021-08-30T03:01:57,42.805,6.029,CST-1368DR,5263,7231,14721,0.236,551
2021-08-30T03:04:59,42.805,6.029,CST-1368DR,5263,7231,14721,0.236,551
2021-08-30T03:08:00,42.805,6.029,CST-1368DR,5263,7231,14721,0.236,551
2021-08-30T03:11:02,42.805,6.029,CST-1368DR,5263,7232,14722,0.236,551
2021-08-30T03:14:04,42.805,6.029,CST-1368DR,5263,7230,14719,0.237,551
2021-08-30T03:17:05,42.805,6.029,CST-1368DR,5263,7232,14722,0.236,551
2021-08-30T03:20:07,42.805,6.029,CST-1368DR,5263,7231,14720,0.236,551
2021-08-30T03:23:08,42.805,6.029,CST-1368DR,5262,7231,14724,0.235,551
2021-08-30T03:26:10,42.805,6.029,CST-1368DR,5263,7231,14721,0.236,551
2021-08-30T03:29:12,42.805,6.029,CST-1368DR,5263,7231,14721,0.236,551
2021-08-30T03:32:13,42.805,6.029,CST-1368DR,5263,7231,14720,0.236,551
2021-08-30T03:35:15,42.805,6.029,CST-1368DR,5263,7231,14720,0.236,551
2021-08-30T03:38:16,42.805,6.029,CST-1368DR,5263,7231,14721,0.236,551
2021-08-30T03:41:18,42.805,6.029,CST-1368DR,5263,7230,14719,0.237,551
2021-08-30T03:44:19,42.805,6.029,CST-1368DR,5263,7231,14721,0.236,551
2021-08-30T03:47:21,42.805,6.029,CST-1368DR,5263,7232,14722,0.236,551
2021-08-30T03:50:23,42.805,6.029,CST-1368DR,5263,7231,14721,0.236,551
2021-08-30T03:53:24,42.805,6.029,CST-1368DR,5262,7232,14725,0.235,551
2021-08-30T03:56:26,42.805,6.029,CST-1368DR,5263,7232,14722,0.236,551
2021-08-30T03:59:27,42.805,6.029,CST-1368DR,5263,7231,14721,0.236,551
2021-08-30T04:02:29,42.805,6.029,CST-1368DR,5262,7231,14724,0.235,551
2021-08-30T04:05:30,42.805,6.029,CST-1368DR,5262,7232,14725,0.235,550
2021-08-30T04:08:32,42.805,6.029,CST-1368DR,5262,7231,14723,0.236,551
2021-08-30T04:11:34,42.805,6.029,CST-1368DR,5262,7231,14723,0.236,551
2021-08-30T04:14:35,42.805,6.029,CST-1368DR,5262,7231,14723,0.236,551
2021-08-30T04:17:37,42.805,6.029,CST-1368DR,5262,7232,14725,0.235,551
2021-08-30T04:20:38,42.805,6.029,CST-1368DR,5262,7231,14724,0.235,551
2021-08-30T04:23:40,42.805,6.029,CST-1368DR,5262,7231,14723,0.236,551
2021-08-30T04:26:42,42.805,6.029,CST-1368DR,5262,7231,14724,0.235,551
2021-08-30T04:29:43,42.805,6.029,CST-1368DR,5262,7230,14722,0.236,551
2021-08-30T04:32:45,42.805,6.029,CST-1368DR,5262,7231,14724,0.235,551
2021-08-30T04:35:46,42.805,6.029,CST-1368DR,5262,7231,14723,0.236,551
2021-08-30T04:38:48,42.805,6.029,CST-1368DR,5262,7231,14723,0.236,551
2021-08-30T04:41:49,42.805,6.029,CST-1368DR,5262,7231,14724,0.235,551
2021-08-30T04:44:51,42.805,6.029,CST-1368DR,5262,7231,14724,0.235,551
2021-08-30T04:47:53,42.805,6.029,CST-1368DR,5262,7231,14724,0.235,551
2021-08-30T04:50:54,42.805,6.029,CST-1368DR,5262,7231,14724,0.235,551
2021-08-30T04:53:56,42.805,6.029,CST-1368DR,5262,7231,14724,0.235,551
2021-08-30T04:56:57,42.805,6.029,CST-1368DR,5262,7232,14725,0.235,551
2021-08-30T04:59:59,42.805,6.029,CST-1368DR,5262,7231,14723,0.236,551
2021-08-30T05:03:01,42.805,6.029,CST-1368DR,5262,7231,14724,0.235,551
2021-08-30T05:06:02,42.805,6.029,CST-1368DR,5262,7231,14724,0.235,551
2021-08-30T05:09:04,42.805,6.029,CST-1368DR,5262,7231,14724,0.235,551
2021-08-30T05:12:05,42.805,6.029,CST-1368DR,5262,7231,14724,0.235,551
2021-08-30T05:15:07,42.805,6.029,CST-1368DR,5262,7232,14725,0.235,551
2021-08-30T05:18:08,42.805,6.029,CST-1368DR,5262,7232,14725,0.235,551
2021-08-30T05:21:10,42.805,6.029,CST-1368DR,5262,7231,14724,0.235,551
2021-08-30T05:24:12,42.805,6.029,CST-1368DR,5262,7231,14724,0.235,551
2021-08-30T05:27:13,42.805,6.029,CST-1368DR,5262,7231,14723,0.236,551
2021-08-30T05:30:15,42.805,6.029,CST-1368DR,5262,7231,14724,0.235,551
2021-08-30T05:33:16,42.805,6.029,CST-1368DR,5262,7231,14724,0.235,551
2021-08-30T05:36:18,42.805,6.029,CST-1368DR,5262,7231,14724,0.235,551
2021-08-30T05:39:19,42.805,6.029,CST-1368DR,5262,7231,14724,0.235,551
2021-08-30T05:42:21,42.805,6.029,CST-1368DR,5262,7232,14725,0.235,551
2021-08-30T05:45:23,42.805,6.029,CST-1368DR,5262,7231,14724,0.235,551
2021-08-30T05:48:24,42.805,6.029,CST-1368DR,5262,7231,14724,0.235,551
2021-08-30T05:51:26,42.805,6.029,CST-1368DR,5262,7230,14722,0.236,551
2021-08-30T05:54:27,42.805,6.029,CST-1368DR,5262,7231,14723,0.236,551
2021-08-30T05:57:29,42.805,6.029,CST-1368DR,5262,7230,14722,0.236,551
2021-08-30T06:00:31,42.805,6.029,CST-1368DR,5262,7231,14723,0.236,551
2021-08-30T06:03:32,42.805,6.029,CST-1368DR,5262,7231,14723,0.236,551
2021-08-30T06:06:34,42.805,6.029,CST-1368DR,5262,7231,14724,0.235,551
2021-08-30T06:09:35,42.805,6.029,CST-1368DR,5262,7231,14724,0.235,551
2021-08-30T06:12:37,42.805,6.029,CST-1368DR,5262,7230,14722,0.236,551
2021-08-30T06:15:38,42.805,6.029,CST-1368DR,5262,7231,14723,0.236,551
2021-08-30T06:18:40,42.805,6.029,CST-1368DR,5262,7231,14723,0.236,551
2021-08-30T06:21:42,42.805,6.029,CST-1368DR,5262,7230,14722,0.236,551
2021-08-30T06:24:43,42.805,6.029,CST-1368DR,5262,7231,14723,0.236,551
2021-08-30T06:27:45,42.805,6.029,CST-1368DR,5262,7231,14724,0.235,551
2021-08-30T06:30:46,42.805,6.029,CST-1368DR,5262,7231,14724,0.235,551
2021-08-30T06:33:48,42.805,6.029,CST-1368DR,5262,7231,14724,0.235,551
2021-08-30T06:36:49,42.805,6.029,CST-1368DR,5262,7231,14724,0.235,551
2021-08-30T06:39:51,42.805,6.029,CST-1368DR,5262,7231,14723,0.236,551
2021-08-30T06:42:53,42.805,6.029,CST-1368DR,5262,7231,14724,0.235,551
2021-08-30T06:45:54,42.805,6.029,CST-1368DR,5262,7231,14724,0.235,551
2021-08-30T06:48:56,42.805,6.029,CST-1368DR,5262,7231,14724,0.235,551
2021-08-30T06:51:57,42.805,6.029,CST-1368DR,5262,7230,14722,0.236,551
2021-08-30T06:54:59,42.805,6.029,CST-1368DR,5262,7231,14723,0.236,551
2021-08-30T06:58:01,42.805,6.029,CST-1368DR,5262,7231,14723,0.236,551
2021-08-30T07:01:02,42.805,6.029,CST-1368DR,5262,7230,14722,0.236,551
2021-08-30T07:04:04,42.805,6.029,CST-1368DR,5262,7231,14723,0.236,551
2021-08-30T07:07:05,42.805,6.029,CST-1368DR,5262,7231,14723,0.236,551
2021-08-30T07:10:07,42.805,6.029,CST-1368DR,5262,7231,14723,0.236,551
2021-08-30T07:13:08,42.805,6.029,CST-1368DR,5262,7231,14723,0.236,550
2021-08-30T07:16:10,42.805,6.029,CST-1368DR,5262,7231,14723,0.236,551
2021-08-30T07:19:12,42.805,6.029,CST-1368DR,5262,7231,14723,0.236,551
2021-08-30T07:22:13,42.805,6.029,CST-1368DR,5262,7231,14723,0.236,551
2021-08-30T07:25:15,42.805,6.029,CST-1368DR,5262,7231,14723,0.236,551
2021-08-30T07:28:16,42.805,6.029,CST-1368DR,5262,7230,14722,0.236,551
2021-08-30T07:31:18,42.805,6.029,CST-1368DR,5262,7231,14723,0.236,551
2021-08-30T07:34:20,42.805,6.029,CST-1368DR,5262,7231,14723,0.236,551
2021-08-30T07:37:21,42.805,6.029,CST-1368DR,5262,7231,14723,0.236,551
2021-08-30T07:40:23,42.805,6.029,CST-1368DR,5262,7231,14723,0.236,551
2021-08-30T07:43:24,42.805,6.029,CST-1368DR,5262,7231,14723,0.236,551
2021-08-30T07:46:26,42.805,6.029,CST-1368DR,5262,7231,14723,0.236,551
2021-08-30T07:49:27,42.805,6.029,CST-1368DR,5262,7231,14723,0.236,551
2021-08-30T07:52:29,42.805,6.029,CST-1368DR,5262,7230,14722,0.236,551
2021-08-30T07:55:31,42.805,6.029,CST-1368DR,5262,7231,14723,0.236,551
2021-08-30T07:58:32,42.805,6.029,CST-1368DR,5262,7231,14723,0.236,551
2021-08-30T08:01:34,42.805,6.029,CST-1368DR,5262,7230,14721,0.236,551
2021-08-30T08:04:35,42.805,6.029,CST-1368DR,5262,7231,14723,0.236,551
2021-08-30T08:07:37,42.805,6.029,CST-1368DR,5262,7230,14721,0.236,551
2021-08-30T08:10:39,42.805,6.029,CST-1368DR,5262,7231,14723,0.236,551
2021-08-30T08:13:40,42.805,6.029,CST-1368DR,5262,7230,14722,0.236,551
2021-08-30T08:16:42,42.805,6.029,CST-1368DR,5262,7230,14722,0.236,551
2021-08-30T08:19:43,42.805,6.029,CST-1368DR,5262,7231,14723,0.236,551
2021-08-30T08:22:45,42.805,6.029,CST-1368DR,5262,7231,14723,0.236,551
2021-08-30T08:25:46,42.805,6.029,CST-1368DR,5262,7231,14723,0.236,551
2021-08-30T08:28:48,42.805,6.029,CST-1368DR,5262,7227,14715,0.238,551
2021-08-30T08:31:50,42.805,6.029,CST-1368DR,5262,7230,14722,0.236,551
2021-08-30T08:34:51,42.805,6.029,CST-1368DR,5262,7230,14720,0.236,551
2021-08-30T08:37:53,42.805,6.029,CST-1368DR,5262,7230,14721,0.236,551
2021-08-30T08:40:54,42.805,6.029,CST-1368DR,5262,7230,14721,0.236,551
2021-08-30T08:43:56,42.805,6.029,CST-1368DR,5262,7229,14719,0.237,551
2021-08-30T08:46:57,42.805,6.029,CST-1368DR,5262,7231,14723,0.236,551
2021-08-30T08:49:59,42.805,6.029,CST-1368DR,5262,7230,14722,0.236,551
2021-08-30T08:53:01,42.805,6.029,CST-1368DR,5262,7229,14720,0.236,551
2021-08-30T08:56:02,42.805,6.029,CST-1368DR,5262,7230,14720,0.236,551
2021-08-30T08:59:04,42.805,6.029,CST-1368DR,5262,7231,14723,0.236,551
2021-08-30T09:02:05,42.805,6.029,CST-1368DR,5262,7229,14719,0.237,551
2021-08-30T09:05:07,42.805,6.029,CST-1368DR,5262,7230,14722,0.236,551
2021-08-30T09:08:09,42.805,6.029,CST-1368DR,5262,7230,14721,0.236,551
2021-08-30T09:11:10,42.805,6.029,CST-1368DR,5262,7230,14722,0.236,551
2021-08-30T09:14:12,42.805,6.029,CST-1368DR,5262,7230,14722,0.236,551
2021-08-30T09:17:13,42.805,6.029,CST-1368DR,5262,7230,14722,0.236,551
2021-08-30T09:20:15,42.805,6.029,CST-1368DR,5262,7230,14721,0.236,551
2021-08-30T09:23:16,42.805,6.029,CST-1368DR,5262,7230,14721,0.236,551
2021-08-30T09:26:18,42.805,6.029,CST-1368DR,5262,7229,14720,0.236,551
2021-08-30T09:29:20,42.805,6.029,CST-1368DR,5262,7230,14721,0.236,551
2021-08-30T09:32:21,42.805,6.029,CST-1368DR,5262,7230,14720,0.236,551
2021-08-30T09:35:23,42.805,6.029,CST-1368DR,5262,7230,14721,0.236,551
2021-08-30T09:38:24,42.805,6.029,CST-1368DR,5262,7230,14721,0.236,551
2021-08-30T09:41:26,42.805,6.029,CST-1368DR,5262,7230,14721,0.236,551
2021-08-30T09:44:27,42.805,6.029,CST-1368DR,5262,7229,14720,0.236,551
2021-08-30T09:47:29,42.805,6.029,CST-1368DR,5262,7230,14720,0.236,551
2021-08-30T09:50:31,42.805,6.029,CST-1368DR,5262,7230,14720,0.236,551
2021-08-30T09:53:32,42.805,6.029,CST-1368DR,5262,7229,14719,0.237,551
2021-08-30T09:56:34,42.805,6.029,CST-1368DR,5262,7229,14720,0.236,551
2021-08-30T09:59:35,42.805,6.029,CST-1368DR,5262,7230,14721,0.236,551
2021-08-30T10:02:37,42.805,6.029,CST-1368DR,5262,7230,14721,0.236,551
2021-08-30T10:05:39,42.805,6.029,CST-1368DR,5262,7230,14720,0.236,551
2021-08-30T10:08:40,42.805,6.029,CST-1368DR,5262,7230,14721,0.236,551
2021-08-30T10:11:42,42.805,6.029,CST-1368DR,5262,7230,14720,0.236,551
2021-08-30T10:14:43,42.805,6.029,CST-1368DR,5262,7229,14720,0.236,551
2021-08-30T10:17:45,42.805,6.029,CST-1368DR,5262,7230,14721,0.236,551
2021-08-30T10:20:46,42.805,6.029,CST-1368DR,5262,7230,14720,0.236,551
2021-08-30T10:23:48,42.805,6.029,CST-1368DR,5262,7229,14719,0.237,551
2021-08-30T10:26:50,42.805,6.029,CST-1368DR,5262,7230,14720,0.236,551
2021-08-30T10:29:51,42.805,6.029,CST-1368DR,5262,7230,14721,0.236,551
2021-08-30T10:32:53,42.805,6.029,CST-1368DR,5262,7229,14720,0.236,551
2021-08-30T10:35:54,42.805,6.029,CST-1368DR,5262,7230,14720,0.236,551
2021-08-30T10:38:56,42.805,6.029,CST-1368DR,5262,7229,14719,0.237,551
2021-08-30T10:41:57,42.805,6.029,CST-1368DR,5262,7229,14719,0.237,551
2021-08-30T10:44:59,42.805,6.029,CST-1368DR,5262,7229,14720,0.236,551
2021-08-30T10:48:01,42.805,6.029,CST-1368DR,5262,7230,14720,0.236,551
2021-08-30T10:51:02,42.805,6.029,CST-1368DR,5262,7230,14721,0.236,551
2021-08-30T10:54:04,42.805,6.029,CST-1368DR,5262,7230,14720,0.236,551
2021-08-30T10:57:05,42.805,6.029,CST-1368DR,5262,7230,14721,0.236,551
2021-08-30T11:00:07,42.805,6.029,CST-1368DR,5262,7230,14720,0.236,551
2021-08-30T11:03:09,42.805,6.029,CST-1368DR,5262,7229,14720,0.236,551
2021-08-30T11:06:10,42.805,6.029,CST-1368DR,5262,7230,14721,0.236,551
2021-08-30T11:09:12,42.805,6.029,CST-1368DR,5262,7229,14719,0.237,551
2021-08-30T11:12:13,42.805,6.029,CST-1368DR,5262,7227,14716,0.237,551
2021-08-30T11:15:15,42.805,6.029,CST-1368DR,5262,7230,14721,0.236,551
2021-08-30T11:18:16,42.805,6.029,CST-1368DR,5262,7229,14719,0.237,551
2021-08-30T11:21:18,42.805,6.029,CST-1368DR,5262,7230,14720,0.236,551
2021-08-30T11:24:20,42.805,6.029,CST-1368DR,5262,7229,14720,0.236,551
2021-08-30T11:27:21,42.805,6.029,CST-1368DR,5261,7230,14723,0.236,551
2021-08-30T11:30:23,42.805,6.029,CST-1368DR,5261,7229,14723,0.236,551
2021-08-30T11:33:24,42.805,6.029,CST-1368DR,5262,7230,14720,0.236,551
2021-08-30T11:36:26,42.805,6.029,CST-1368DR,5262,7230,14721,0.236,551
2021-08-30T11:39:28,42.805,6.029,CST-1368DR,5262,7229,14720,0.236,551
2021-08-30T11:42:29,42.805,6.029,CST-1368DR,5261,7230,14724,0.235,551
2021-08-30T11:45:31,42.805,6.029,CST-1368DR,5262,7229,14720,0.236,551
2021-08-30T11:48:32,42.805,6.029,CST-1368DR,5262,7229,14719,0.237,551
2021-08-30T11:51:34,42.805,6.029,CST-1368DR,5262,7229,14719,0.237,551
2021-08-30T11:54:35,42.805,6.029,CST-1368DR,5261,7229,14723,0.236,551
2021-08-30T11:57:37,42.805,6.029,CST-1368DR,5261,7229,14723,0.236,551
2021-08-30T12:00:39,42.805,6.029,CST-1368DR,5261,7228,14720,0.236,551
2021-08-30T12:03:40,42.805,6.029,CST-1368DR,5262,7229,14719,0.237,551
2021-08-30T12:06:42,42.805,6.029,CST-1368DR,5262,7229,14719,0.237,551
2021-08-30T12:09:43,42.805,6.029,CST-1368DR,5262,7229,14719,0.237,551
2021-08-30T12:12:45,42.805,6.029,CST-1368DR,5262,7229,14720,0.236,551
2021-08-30T12:15:46,42.805,6.029,CST-1368DR,5261,7230,14724,0.235,551
2021-08-30T12:18:48,42.805,6.029,CST-1368DR,5261,7229,14723,0.236,551
2021-08-30T12:21:50,42.805,6.029,CST-1368DR,5262,7230,14720,0.236,551
2021-08-30T12:24:51,42.805,6.029,CST-1368DR,5262,7229,14720,0.236,551
2021-08-30T12:27:53,42.805,6.029,CST-1368DR,5262,7229,14720,0.236,551
2021-08-30T12:30:54,42.805,6.029,CST-1368DR,5262,7230,14720,0.236,551
2021-08-30T12:33:56,42.805,6.029,CST-1368DR,5261,7229,14723,0.236,551
2021-08-30T12:36:58,42.805,6.029,CST-1368DR,5261,7229,14722,0.236,551
2021-08-30T12:39:59,42.805,6.029,CST-1368DR,5261,7229,14723,0.236,551
2021-08-30T12:43:01,42.805,6.029,CST-1368DR,5262,7229,14720,0.236,551
2021-08-30T12:46:02,42.805,6.029,CST-1368DR,5262,7229,14719,0.237,551
2021-08-30T12:49:04,42.805,6.029,CST-1368DR,5262,7228,14717,0.237,551
2021-08-30T12:52:05,42.805,6.029,CST-1368DR,5262,7229,14720,0.236,551
2021-08-30T12:55:07,42.805,6.029,CST-1368DR,5261,7229,14722,0.236,551
2021-08-30T12:58:09,42.805,6.029,CST-1368DR,5262,7229,14720,0.236,551
2021-08-30T13:01:10,42.805,6.029,CST-1368DR,5262,7229,14719,0.237,551
2021-08-30T13:04:12,42.805,6.029,CST-1368DR,5261,7229,14722,0.236,551
2021-08-30T13:07:13,42.805,6.029,CST-1368DR,5261,7228,14721,0.236,551
2021-08-30T13:10:15,42.805,6.029,CST-1368DR,5261,7229,14722,0.236,551
2021-08-30T13:13:16,42.805,6.029,CST-1368DR,5261,7229,14722,0.236,551
2021-08-30T13:16:18,42.805,6.029,CST-1368DR,5261,7229,14722,0.236,551
2021-08-30T13:19:20,42.805,6.029,CST-1368DR,5261,7228,14720,0.236,551
2021-08-30T13:22:21,42.805,6.029,CST-1368DR,5261,7229,14722,0.236,551
2021-08-30T13:25:23,42.805,6.029,CST-1368DR,5262,7228,14718,0.237,551
2021-08-30T13:28:24,42.805,6.029,CST-1368DR,5261,7229,14722,0.236,551
2021-08-30T13:31:26,42.805,6.029,CST-1368DR,5261,7229,14722,0.236,551
2021-08-30T13:34:28,42.805,6.029,CST-1368DR,5261,7228,14721,0.236,551
2021-08-30T13:37:29,42.805,6.029,CST-1368DR,5261,7229,14722,0.236,551
2021-08-30T13:40:31,42.805,6.029,CST-1368DR,5261,7228,14721,0.236,551
2021-08-30T13:43:32,42.805,6.029,CST-1368DR,5261,7229,14723,0.236,551
2021-08-30T13:46:34,42.805,6.029,CST-1368DR,5261,7229,14722,0.236,551
2021-08-30T13:49:35,42.805,6.029,CST-1368DR,5261,7228,14721,0.236,550
2021-08-30T13:52:37,42.805,6.029,CST-1368DR,5261,7228,14720,0.236,551
2021-08-30T13:55:39,42.805,6.029,CST-1368DR,5261,7228,14720,0.236,551
2021-08-30T13:58:40,42.805,6.029,CST-1368DR,5261,7229,14722,0.236,551
2021-08-30T14:01:42,42.805,6.029,CST-1368DR,5261,7228,14721,0.236,551
2021-08-30T14:04:43,42.805,6.029,CST-1368DR,5261,7229,14722,0.236,551
2021-08-30T14:07:45,42.805,6.029,CST-1368DR,5261,7229,14722,0.236,551
2021-08-30T14:10:47,42.805,6.029,CST-1368DR,5261,7229,14723,0.236,551
2021-08-30T14:13:48,42.805,6.029,CST-1368DR,5261,7228,14719,0.237,551
2021-08-30T14:16:50,42.805,6.029,CST-1368DR,5261,7229,14722,0.236,551
2021-08-30T14:19:51,42.805,6.029,CST-1368DR,5261,7229,14722,0.236,551
2021-08-30T14:22:53,42.805,6.029,CST-1368DR,5261,7227,14718,0.237,551
2021-08-30T14:25:54,42.805,6.029,CST-1368DR,5261,7228,14721,0.236,551
2021-08-30T14:28:56,42.805,6.029,CST-1368DR,5261,7228,14721,0.236,551
2021-08-30T14:31:58,42.805,6.029,CST-1368DR,5261,7227,14717,0.237,551
2021-08-30T14:34:59,42.805,6.029,CST-1368DR,5261,7229,14722,0.236,551
2021-08-30T14:38:01,42.805,6.029,CST-1368DR,5261,7228,14720,0.236,551
2021-08-30T14:41:02,42.805,6.029,CST-1368DR,5261,7229,14722,0.236,551
2021-08-30T14:44:04,42.805,6.029,CST-1368DR,5261,7229,14723,0.236,551
2021-08-30T14:47:05,42.805,6.029,CST-1368DR,5261,7229,14722,0.236,551
2021-08-30T14:50:07,42.805,6.029,CST-1368DR,5261,7219,14702,0.241,551
2021-08-30T14:53:09,42.805,6.029,CST-1368DR,5261,7227,14718,0.237,551
2021-08-30T14:56:10,42.805,6.029,CST-1368DR,5261,7228,14720,0.236,551
2021-08-30T14:59:12,42.805,6.029,CST-1368DR,5261,7229,14722,0.236,551
2021-08-30T15:02:13,42.805,6.029,CST-1368DR,5261,7228,14720,0.236,551
2021-08-30T15:05:15,42.805,6.029,CST-1368DR,5261,7226,14715,0.238,551
2021-08-30T15:08:17,42.805,6.029,CST-1368DR,5261,7229,14722,0.236,551
2021-08-30T15:11:18,42.805,6.029,CST-1368DR,5261,7229,14723,0.236,551
2021-08-30T15:14:20,42.805,6.029,CST-1368DR,5261,7228,14721,0.236,551
2021-08-30T15:17:21,42.805,6.029,CST-1368DR,5261,7229,14722,0.236,551
2021-08-30T15:20:23,42.805,6.029,CST-1368DR,5261,7230,14723,0.236,551
2021-08-30T15:23:24,42.805,6.029,CST-1368DR,5261,7229,14723,0.236,551
2021-08-30T15:26:26,42.805,6.029,CST-1368DR,5261,7229,14722,0.236,551
2021-08-30T15:29:28,42.805,6.029,CST-1368DR,5261,7229,14722,0.236,551
2021-08-30T15:32:29,42.805,6.029,CST-1368DR,5261,7229,14723,0.236,551
2021-08-30T15:35:31,42.805,6.029,CST-1368DR,5261,7229,14722,0.236,551
2021-08-30T15:38:32,42.805,6.029,CST-1368DR,5261,7229,14722,0.236,551
2021-08-30T15:41:34,42.805,6.029,CST-1368DR,5261,7229,14722,0.236,551
2021-08-30T15:44:35,42.805,6.029,CST-1368DR,5261,7229,14723,0.236,551
2021-08-30T15:47:37,42.805,6.029,CST-1368DR,5261,7229,14722,0.236,551
2021-08-30T15:50:39,42.805,6.029,CST-1368DR,5261,7229,14722,0.236,551
2021-08-30T15:53:40,42.805,6.029,CST-1368DR,5261,7228,14721,0.236,551
2021-08-30T15:56:42,42.805,6.029,CST-1368DR,5261,7229,14722,0.236,551
2021-08-30T15:59:43,42.805,6.029,CST-1368DR,5261,7229,14722,0.236,551
2021-08-30T16:02:45,42.805,6.029,CST-1368DR,5261,7228,14721,0.236,551
2021-08-30T16:05:47,42.805,6.029,CST-1368DR,5261,7228,14720,0.236,551
2021-08-30T16:08:48,42.805,6.029,CST-1368DR,5261,7228,14720,0.236,551
2021-08-30T16:11:50,42.805,6.029,CST-1368DR,5261,7228,14721,0.236,551
2021-08-30T16:14:51,42.805,6.029,CST-1368DR,5261,7229,14722,0.236,551
2021-08-30T16:17:53,42.805,6.029,CST-1368DR,5261,7229,14722,0.236,551
2021-08-30T16:20:54,42.805,6.029,CST-1368DR,5261,7228,14720,0.236,551
2021-08-30T16:23:56,42.805,6.029,CST-1368DR,5261,7228,14720,0.236,551
2021-08-30T16:26:58,42.805,6.029,CST-1368DR,5261,7228,14721,0.236,551
2021-08-30T16:29:59,42.805,6.029,CST-1368DR,5261,7229,14722,0.236,551
2021-08-30T16:33:01,42.805,6.029,CST-1368DR,5261,7229,14722,0.236,551
2021-08-30T16:36:02,42.805,6.029,CST-1368DR,5261,7229,14722,0.236,551
2021-08-30T16:39:04,42.805,6.029,CST-1368DR,5261,7228,14721,0.236,551
2021-08-30T16:42:05,42.805,6.029,CST-1368DR,5261,7228,14721,0.236,551
2021-08-30T16:45:07,42.805,6.029,CST-1368DR,5261,7228,14720,0.236,551
2021-08-30T16:48:09,42.805,6.029,CST-1368DR,5261,7229,14722,0.236,551
2021-08-30T16:51:10,42.805,6.029,CST-1368DR,5261,7229,14722,0.236,551